Location: Quaker Farms
(41.4276°N, 73.1557°W)
Time: 00:28:23
(UTC+00:00)

Altair - Pass Details

Date: 18 June 2021
Orbit: 1501 x 1682 km, 47.2° (Epoch: 23 July)

Event Time Altitude Azimuth Distance (km) Brightness Sun altitude
Rises 20:03:39 0° 262° (W) 4,709 10.8 46.8°
Reaches altitude 10° 20:06:43 10° 265° (W) 3,749 10.6 46.2°
Maximum altitude 20:16:13 67° 348° (NNW) 1,715 8.6 44.4°
Drops below altitude 10° 20:26:09 10° 71° (ENE) 3,896 9.3 42.6°
Sets 20:29:24 0° 74° (ENE) 4,902 9.7 42.0°
